Home > Weather > Hialeah > Past weeks

Flag for U.S.A. Weather for the Past 2 Weeks in Hialeah, Florida, U.S.A.

Now
68 °F

Light rain. Overcast.


Feels Like: 68 °F
Forecast: 50 / 62 °F
Wind: 17 mph from Northwest

Location: Opa Locka Airport

Current Time: Feb 6, 2016 at 9:16:09 PM

Latest Report: Feb 6, 2016 at 7:58 PM


Visibility: 10 mi

Pressure: 30.02 "Hg

Humidity: 90%

Dew point: 65 °F

Location of HialeahLocation

Historic Weather in Hialeah — Graph

°F

Hialeah Temperature Yesterday

Maximum temperature yesterday: 75 °F (at 1:53 AM)
Minimum temperature yesterday: 60 °F (at 7:53 AM)
Average temperature yesterday: 66 °F

High & Low Weather Summary for the Past Weeks

 TemperatureHumidityPressure
High83 °F (Jan 27, 12:53 PM)100% (Feb 2, 3:56 AM)30.29 "Hg (Feb 2, 3:56 AM)
Low46 °F (Jan 24, 6:53 AM)36% (Jan 23, 12:53 PM)29.79 "Hg (Jan 28, 5:53 PM)
Average69 °F73%30.07 "Hg
* Reported Jan 22 6:53 PM — Feb 6 6:53 PM, Hialeah, Weather by CustomWeather, © 2016

Note: Actual official high and low records may vary slightly from our data, if they occured in-between our weather recording intervals... More about our weather records

Advertising

Hialeah Weather History for the Previous 24 Hours

 ConditionsComfort  
Time TempWeatherWind HumidityBarometerVisibility
6:53 PM
Sat, Feb 6
75 °FLight rain. Overcast.10 mph76%30.01 "Hg10 mi
5:53 PM76 °FCloudy.10 mph72%30.01 "Hg10 mi
3:53 PM78 °FPartly sunny.13 mph64%30.03 "Hg10 mi
3:02 PM79 °FScattered clouds.10 mph62%30.03 "Hg10 mi
1:53 PM80 °FOvercast.10 mph58%30.05 "Hg10 mi
12:53 PM80 °FPassing clouds.12 mph60%30.09 "Hg10 mi
11:53 AM78 °FPartly sunny.6 mph66%30.13 "Hg10 mi
10:53 AM72 °FRain. Mostly cloudy.No wind76%30.15 "Hg10 mi
9:53 AM71 °FPassing clouds.3 mph71%30.15 "Hg10 mi
8:53 AM69 °FScattered clouds.3 mph73%30.14 "Hg10 mi
7:53 AM64 °FOvercast.5 mph84%30.14 "Hg10 mi
6:53 AM62 °FPassing clouds.8 mph86%30.12 "Hg10 mi
5:53 AM61 °FClear.5 mph87%30.08 "Hg10 mi
4:53 AM62 °FPassing clouds.8 mph83%30.10 "Hg10 mi
3:53 AM62 °FOvercast.3 mph83%30.09 "Hg10 mi
2:53 AM61 °FPassing clouds.5 mph81%30.09 "Hg10 mi
1:53 AM61 °FPassing clouds.7 mph81%30.13 "Hg10 mi
12:53 AM62 °FOvercast.8 mph78%30.15 "Hg10 mi
11:53 PM
Fri, Feb 5
63 °FPassing clouds.8 mph78%30.15 "Hg10 mi
10:53 PM66 °FOvercast.7 mph70%30.16 "Hg10 mi
9:53 PM66 °FOvercast.7 mph70%30.16 "Hg10 mi
Weather by CustomWeather, © 2016

See weather overviewHow to use our weather pages